Location: Foligno
(42.9600°N, 12.7050°E)
Time: 16:35:24
(UTC+02:00)

ISS - Pass Details

Date: 16 July 2018
Orbit: 402 x 408 km, 51.6° (Epoch: 20 July)

Event Time Altitude Azimuth Distance (km) Brightness Sun altitude
Exits shadow 02:31:48 11° 305° (NW) 1,433 -0.9 -23.3°
Maximum altitude 02:34:09 19° 352° (N) 1,040 -1.1 -23.1°
Drops below altitude 10° 02:36:36 10° 40° (NE) 1,471 0.0 -23.0°
Sets 02:39:06 0° 59° (ENE) 2,334 0.8 -22.8°
